Weather History for Andalusia, AL

Change the Weather History Date:

Sunday, January 27, 2013

  Actual Average (KCEW) Record (KCEW)
Temperature  
Mean Temperature 62 °F -  
Max Temperature 73 °F 60 °F 80 °F (1950)
Min Temperature 50 °F 37 °F 23 °F (2011)
Degree Days  
Heating Degree Days 4    
Growing Degree Days 12 (Base 50)    
Moisture  
Dew Point 44 °F    
Average Humidity 53    
Maximum Humidity 69    
Minimum Humidity 34    
Precipitation  
Precipitation 0.00 in - - ()
Sea Level Pressure  
Sea Level Pressure 30.29 in    
Wind  
Wind Speed 4 mph (ESE)    
Max Wind Speed 8 mph    
Max Gust Speed -    
Visibility 10 miles    
Events      
Averages and records for this station are not official NWS values.
T = Trace of Precipitation, MM = Missing Value Source: NWS Daily Summary

Daily Weather History Graph

Daily Weather History Graph

Search for Another Location

Airport:

Trip Planner

Search our weather history database for the weather conditions in past years. The results will help you decide how hot, cold, wet, or windy it might be!

Date:

Astronomy

Jan. 27, 2013 Rise Set
Actual Time 6:40 AM CST 5:16 PM CST
Civil Twilight 6:15 AM CST 5:42 PM CST
Nautical Twilight 5:45 AM CST 6:11 PM CST
Astronomical Twilight 5:17 AM CST 6:40 PM CST
Moon 6:03 PM CST (1/27) 6:38 AM CST (1/27)
Length of Visible Light 11h 27m
Length of Day
10h 35m
Full, 100% of the Moon is Illuminated
Jan 27
Full
Feb 3
Last Quarter
Feb 10
New
Feb 17
First Quarter
Feb 25
Full

Hourly Weather History & Observations

Time (CST) Temp. Dew Point Humidity Pressure Visibility Wind Dir Wind Speed Gust Speed Precip Events Conditions
12:56 AM 55.9 °F 44.1 °F 64% 30.27 in 10.0 mi ESE 3.5 mph - N/A   Overcast
1:56 AM 55.0 °F 42.1 °F 62% 30.27 in 10.0 mi SE 3.5 mph - N/A   Overcast
2:56 AM 54.0 °F 42.1 °F 64% 30.27 in 10.0 mi Calm Calm - N/A   Overcast
3:56 AM 52.0 °F 42.1 °F 69% 30.27 in 10.0 mi East 3.5 mph - N/A   Clear
4:56 AM 51.1 °F 41.0 °F 68% 30.28 in 10.0 mi ESE 3.5 mph - N/A   Clear
5:56 AM 50.0 °F 39.9 °F 68% 30.30 in 10.0 mi ESE 4.6 mph - N/A   Clear
6:56 AM 50.0 °F 37.0 °F 61% 30.31 in 10.0 mi East 5.8 mph - N/A   Clear
7:56 AM 53.1 °F 36.0 °F 52% 30.32 in 10.0 mi ESE 6.9 mph - N/A   Clear
8:56 AM 59.0 °F 34.0 °F 39% 30.34 in 10.0 mi ESE 3.5 mph - N/A   Clear
9:56 AM 64.9 °F 36.0 °F 34% 30.34 in 10.0 mi ESE 5.8 mph - N/A   Clear
10:56 AM 68.0 °F 41.0 °F 37% 30.32 in 10.0 mi Variable 3.5 mph - N/A   Clear
11:56 AM 71.1 °F 46.0 °F 41% 30.30 in 10.0 mi Calm Calm - N/A   Clear
12:56 PM 73.0 °F 48.0 °F 41% 30.27 in 10.0 mi East 8.1 mph - N/A   Clear
1:56 PM 73.9 °F 48.9 °F 41% 30.26 in 10.0 mi ESE 5.8 mph - N/A   Clear
2:56 PM 73.0 °F 48.0 °F 41% 30.26 in 10.0 mi SE 5.8 mph - N/A   Clear
3:56 PM 73.0 °F 48.9 °F 42% 30.26 in 10.0 mi SSE 5.8 mph - N/A   Clear
4:56 PM 70.0 °F 48.9 °F 47% 30.27 in 10.0 mi SE 4.6 mph - N/A   Overcast
5:56 PM 66.9 °F 50.0 °F 54% 30.29 in 10.0 mi ESE 4.6 mph - N/A   Overcast
6:56 PM 66.9 °F 48.9 °F 52% 30.29 in 10.0 mi ESE 4.6 mph - N/A   Overcast
7:56 PM 63.0 °F 48.0 °F 58% 30.30 in 10.0 mi SE 4.6 mph - N/A   Scattered Clouds
8:56 PM 66.0 °F 46.0 °F 48% 30.30 in 10.0 mi SE 6.9 mph - N/A   Overcast
9:56 PM 64.0 °F 46.9 °F 54% 30.29 in 9.0 mi SE 6.9 mph - N/A   Clear
10:56 PM 61.0 °F 46.9 °F 60% 30.29 in 8.0 mi SE 5.8 mph - N/A   Partly Cloudy
11:56 PM 60.1 °F 48.0 °F 64% 30.29 in 8.0 mi SE 3.5 mph - N/A   Mostly Cloudy